Regional Weather Roundup
Issued by NWS

Home | Current Version | Previous Version | Graphics & Text | Print | Product List | Glossary On
Versions: 1 2 3 4 5 6 7 8 9 10 11 12 13 14 15 16 17 18 19 20 21 22 23 24 25 26 27 28 29 30 31 32 33 34 35 36 37 38 39 40 41 42 43 44 45 46 47 48 49 50
000
ASUS45 KABQ 281910
RWRNM
NEW MEXICO REGIONAL WEATHER ROUNDUP
NATIONAL WEATHER SERVICE ALBUQUERQUE NM
100 PM MDT THU MAY 28 2015

NOTE: "FAIR" MEANS FEW OR NO CLOUDS BELOW 12,000 FEET AGL WITH NO
       SIGNIFICANT WEATHER OR OBSTRUCTIONS TO VISION.

      THIS PRODUCT IS RELEASED AS TWO VERSIONS.  ONE VERSION NEAR
      THE TOP OF THE HOUR CONTAINING PRELIMINARY DATA FROM ALBUQUERQUE
      AND OTHER STATIONS.  A FINAL VERSION WITH ADDITIONAL DATA IS
      ISSUED ABOUT 10 MINUTES AFTER THE HOUR.

NMZ501-503-504-510>518-282000-
NORTHWEST PLATEAU/NORTHCENTRAL MOUNTAINS

CITY           SKY/WX    TMP DP  RH WIND       PRES   REMARKS
FARMINGTON     SUNNY     76  36  23 W13       30.11F
LOS ALAMOS     MOSUNNY   72  21  14 SW9G16    30.18F
SANTA FE       SUNNY     78  20  11 W12G23    30.14F
TAOS           MOSUNNY   72  27  18 W9G24     30.17F
ANGEL FIRE     FAIR      63  26  25 W13G18    30.23F

$$
NMZ402-403-502-505>509-282000-
WESTCENTRAL MOUNTAINS/SOUTHWEST MOUNTAINS

CITY           SKY/WX    TMP DP  RH WIND       PRES   REMARKS
GALLUP         SUNNY     72  22  15 VRB5      30.18F
GRANTS         SUNNY     76  17  10 SE5       30.17F
SILVER CITY      N/A     81  16   9 S3G16     30.13F

$$
NMZ407-409-411-412-282000-
SOUTHERN DESERTS

CITY           SKY/WX    TMP DP  RH WIND       PRES   REMARKS
LORDSBURG      FAIR      82  21  10 SW3       30.07F
DEMING         SUNNY     87  19   8 VRB6      30.05F
LAS CRUCES     SUNNY     86  15   7 W5        30.06F
HOLLOMAN AFB   MOSUNNY   87  24  10 NW5       30.01F
ALAMOGORDO     SUNNY     86  19   8 S7        30.03F
T OR C         SUNNY     83  21  10 VRB3      30.05F

$$
NMZ519>523-282000-
CENTRAL VALLEYS/CENTRAL HIGHLANDS

CITY           SKY/WX    TMP DP  RH WIND       PRES   REMARKS
ALBUQUERQUE    MOSUNNY   78  25  14 E5        30.10F
DOUBLE EAGLE   MOSUNNY   75  28  17 W6        30.14F
MORIARTY ARPT  FAIR      76  21  13 W9        30.15F
CLINES CORNERS MOSUNNY   72  26  18 NW15G24   30.17F
BELEN          FAIR      79  25  13 CALM      30.09F
SOCORRO        FAIR      83  25  12 NE8       30.06F

$$
NMZ524>526-539-540-282000-
SOUTHCENTRAL MOUNTAINS

CITY           SKY/WX    TMP DP  RH WIND       PRES   REMARKS
RUIDOSO        MOSUNNY   77  23  13 S9G16     30.19F

$$
NMZ527>531-282000-
NORTHEAST HIGHLANDS/NORTHEAST PLAINS

CITY           SKY/WX    TMP DP  RH WIND       PRES   REMARKS
LAS VEGAS      SUNNY     75  24  15 SW24G31   30.13F
RATON          MOSUNNY   69  40  34 SW9       30.07F
CLAYTON        PTSUNNY   74  59  59 S24G30    30.03F

$$
NMZ532>537-282000-
EASTCENTRAL PLAINS

CITY           SKY/WX    TMP DP  RH WIND       PRES   REMARKS
TUCUMCARI      PTSUNNY   81  58  45 S13       29.98F
CANNON AFB     NOT AVBL
CLOVIS AIRPORT PTSUNNY   77  61  57 S24         N/A

$$
NMZ028-029-538-282000-
SOUTHEAST PLAINS

CITY           SKY/WX    TMP DP  RH WIND       PRES   REMARKS
ROSWELL        SUNNY     84  60  44 SE7G17    29.98F
ARTESIA        SUNNY     82  61  47 VRB6G13   29.98F
CARLSBAD       SUNNY     86  63  45 S13G21    29.96F
HOBBS          MOSUNNY   72  70  94 S7        30.01F


$$



USA.gov is the U.S. government's official web portal to all federal, state and local government web resources and services.